This is the latest recevied weather packets stored in our database for station/object 9W2CHF-3. If no packets are shown the sender has not sent any weather packets the latest 10 day(s).
| Time | Temp. | Humidity | Pressure | Rain* | Wind** | Luminosity | Snow |
|---|---|---|---|---|---|---|---|
| 1788618994 | 28.89° C | 100% | 1014.4 hPa | - | - | - | - |
| 1788617764 | 28.89° C | 98% | 1014.2 hPa | - | - | - | - |
| 1788616564 | 28.89° C | 96% | 1014.2 hPa | - | - | - | - |
| 1788615364 | 29.44° C | 94% | 1014.1 hPa | - | - | - | - |
| 1788614164 | 29.44° C | 92% | 1014 hPa | - | - | - | - |
| 1788612964 | 29.44° C | 90% | 1013.8 hPa | - | - | - | - |
| 1788611764 | 29.44° C | 93% | 1013.4 hPa | - | - | - | - |
| 1788610564 | 30° C | 89% | 1013.3 hPa | - | - | - | - |
| 1788609364 | 30° C | 86% | 1013 hPa | - | - | - | - |
| 1788608163 | 30.56° C | 88% | 1012.8 hPa | - | - | - | - |
| 1788606962 | 31.67° C | 81% | 1012.5 hPa | - | - | - | - |
| 1788605762 | 31.67° C | 83% | 1012.3 hPa | - | - | - | - |
| 1788604562 | 32.22° C | 73% | 1012 hPa | - | - | - | - |
| 1788603362 | 32.78° C | 72% | 1011.7 hPa | - | - | - | - |
| 1788602164 | 33.33° C | 72% | 1011.4 hPa | - | - | - | - |
| 1788600964 | 33.89° C | 72% | 1011.3 hPa | - | - | - | - |
| 1788599773 | 33.33° C | 72% | 1011 hPa | - | - | - | - |
| 1788598564 | 34.44° C | 66% | 1010.9 hPa | - | - | - | - |
| 1788597364 | 35.56° C | 63% | 1011.2 hPa | - | - | - | - |
| 1788596164 | 35.56° C | 61% | 1011.2 hPa | - | - | - | - |
| 1788594964 | 35° C | 61% | 1011.4 hPa | - | - | - | - |
| 1788593764 | 35.56° C | 59% | 1011.4 hPa | - | - | - | - |
| 1788592564 | 35° C | 59% | 1011.8 hPa | - | - | - | - |
| 1788591364 | 35.56° C | 57% | 1012.1 hPa | - | - | - | - |
| 1788590164 | 35.56° C | 63% | 1012.4 hPa | - | - | - | - |
* Rain since midnight (hover to see other rain measurements)
** Current wind speed in m/s (hover to see current wind gust speed)